WetterOnline ( https://www.wetteronline.de )

Wetter aktuell Bad Schmiedeberg

Aktuelles Wetter: Holzdorf/Flugplatz (82m)

6-stündlich | Neueste Meldungen
Ortszeit Temperatur Wetter
Sa, 20.07. 20:00 28.4° C fast wolkenlos
Sa, 20.07. 14:00 30.0° C leicht bewölkt
Sa, 20.07. 8:00 20.2° C leicht bewölkt
Sa, 20.07. 2:00 19.7° C wolkig
Fr, 19.07. 20:00 26.1° C leicht bewölkt
Fr, 19.07. 14:00 28.0° C leicht bewölkt
Fr, 19.07. 8:00 20.3° C fast wolkenlos
Fr, 19.07. 2:00 14.5° C leicht bewölkt
Ortszeit Temperatur Wetter
So, 21.07. 0:00 21.5° C fast wolkenlos
Sa, 20.07. 23:00 22.3° C leicht bewölkt
Sa, 20.07. 22:00 23.8° C fast wolkenlos
Sa, 20.07. 21:00 26.0° C fast wolkenlos
Sa, 20.07. 20:00 28.4° C fast wolkenlos
Sa, 20.07. 19:00 29.3° C fast wolkenlos
Sa, 20.07. 18:00 29.8° C leicht bewölkt
Ortszeit Relative Feuchte Sichtweite
Sa, 20.07. 20:00 38% 30 km
Sa, 20.07. 14:00 34% 55 km
Sa, 20.07. 8:00 66% 30 km
Sa, 20.07. 2:00 65% 35 km
Fr, 19.07. 20:00 38% 40 km
Fr, 19.07. 14:00 35% 35 km
Fr, 19.07. 8:00 66% 30 km
Fr, 19.07. 2:00 88% 40 km
Ortszeit Relative Feuchte Sichtweite
So, 21.07. 0:00 55% 30 km
Sa, 20.07. 23:00 53% 30 km
Sa, 20.07. 22:00 50% 25 km
Sa, 20.07. 21:00 44% 25 km
Sa, 20.07. 20:00 38% 30 km
Sa, 20.07. 19:00 37% 30 km
Sa, 20.07. 18:00 35% 45 km
Ortszeit Niederschlagsmenge Niederschlagsart
Sa, 20.07. 20:00 0.0 l/m2 in 12 Std. -
Sa, 20.07. 14:00 keine Meldung -
Sa, 20.07. 8:00 0.0 l/m2 in 12 Std. -
Sa, 20.07. 2:00 keine Meldung -
Fr, 19.07. 20:00 0.0 l/m2 in 12 Std. -
Fr, 19.07. 14:00 keine Meldung -
Fr, 19.07. 8:00 0.0 l/m2 in 12 Std. -
Fr, 19.07. 2:00 keine Meldung -
Ortszeit Niederschlagsmenge Niederschlagsart
So, 21.07. 0:00 keine Meldung -
Sa, 20.07. 23:00 keine Meldung -
Sa, 20.07. 22:00 keine Meldung -
Sa, 20.07. 21:00 keine Meldung -
Sa, 20.07. 20:00 keine Meldung -
Sa, 20.07. 19:00 keine Meldung -
Sa, 20.07. 18:00 keine Meldung -
Ortszeit Stärke Spitze Richtung
km/h Bft. km/h Grad Sektor
Sa, 20.07. 20:00 11 2 - 80° O
Sa, 20.07. 14:00 14 3 - 140° SO
Sa, 20.07. 8:00 7 2 - 80° O
Sa, 20.07. 2:00 7 2 - 30° NO
Fr, 19.07. 20:00 7 2 - 50° NO
Fr, 19.07. 14:00 11 2 - 30° NO
Fr, 19.07. 8:00 4 1 - - -
Fr, 19.07. 2:00 0 0 - - -
Ortszeit Stärke Spitze Richtung
km/h Bft. km/h Grad Sektor
So, 21.07. 0:00 7 2 - 80° O
Sa, 20.07. 23:00 7 2 - 80° O
Sa, 20.07. 22:00 11 2 - 70° O
Sa, 20.07. 21:00 11 2 - 80° O
Sa, 20.07. 20:00 11 2 - 80° O
Sa, 20.07. 19:00 14 3 - 70° O
Sa, 20.07. 18:00 14 3 - 60° NO
Ortszeit Untergrenze Bedeckung Gattung
total tief tief mittel hoch
Sa, 20.07. 20:00 3600 m 1/8 1/8 - Ac Ci
Sa, 20.07. 14:00 2100 m 3/8 2/8 Cu Ac Cs
Sa, 20.07. 8:00 2100 m 2/8 1/8 Sc Ac Ci
Sa, 20.07. 2:00 2100 m 7/8 5/8 Sc - Cs
Fr, 19.07. 20:00 2100 m 6/8 1/8 Sc - Cs
Fr, 19.07. 14:00 1800 m 4/8 3/8 Cu - Ci
Fr, 19.07. 8:00 7500 m 1/8 0/8 - - Ci
Fr, 19.07. 2:00 6600 m 6/8 2/8 - - Ci
Ortszeit Bedeckungsgrad in Achtel und Wolkenuntergrenze
So, 21.07. 0:00 1(2700m)
Sa, 20.07. 23:00 2(2700m)
Sa, 20.07. 22:00 2(2700m)
Sa, 20.07. 21:00 1(3600m)
Sa, 20.07. 20:00 1(3600m)
Sa, 20.07. 19:00 1(3600m)
Sa, 20.07. 18:00 1(2100m)
Ortszeit Luftdruck NN (hPa) Tendenz (hPa in 3 Std.)
Sa, 20.07. 20:00 1009 - 0,6
Sa, 20.07. 14:00 1011 - 1,2
Sa, 20.07. 8:00 1014 - 0,7
Sa, 20.07. 2:00 1016 - 1,1
Fr, 19.07. 20:00 1017 - 1,3
Fr, 19.07. 14:00 1020 - 1,3
Fr, 19.07. 8:00 1022 - 0,2
Fr, 19.07. 2:00 1023 + 0,3
Ortszeit Luftdruck NN (hPa) Tendenz (hPa in 3 Std.)
So, 21.07. 0:00 1009 - 0,3
Sa, 20.07. 23:00 1009 - 0,2
Sa, 20.07. 22:00 1009 0,0
Sa, 20.07. 21:00 1009 - 0,4
Sa, 20.07. 20:00 1009 - 0,6
Sa, 20.07. 19:00 1009 - 1,2
Sa, 20.07. 18:00 1009 - 1,6
Ortszeit Schneehöhe (cm)
Sa, 20.07. 20:00 0
Sa, 20.07. 14:00 -
Sa, 20.07. 8:00 0
Sa, 20.07. 2:00 -
Fr, 19.07. 20:00 0
Fr, 19.07. 14:00 -
Fr, 19.07. 8:00 0
Fr, 19.07. 2:00 -
Ortszeit Schneehöhe (cm)
So, 21.07. 0:00 -
Sa, 20.07. 23:00 -
Sa, 20.07. 22:00 -
Sa, 20.07. 21:00 -
Sa, 20.07. 20:00 0
Sa, 20.07. 19:00 -
Sa, 20.07. 18:00 -
Link zu dieser Seite / Seite empfehlen

Das Wetter in ...